Location: Chippewa Lake
(41.0698°N, 81.9010°W)
Time: 04:16:02
(UTC+00:00)

Daily predictions for brighter satellites

Satellite Brightness Start Highest point End
(mag) Time Altitude Azimuth Time Altitude Azimuth Time Altitude Azimuth
Cosmos 372 Rocket 4.2 00:01:30 10° S 00:06:29 46° ESE 00:11:29 10° NNE
Cosmos 2263 Rocket 2.8 00:02:25 10° SW 00:07:54 62° WNW 00:13:27 10° NNE
Cosmos 1464 Rocket 4.3 00:03:36 10° SSE 00:09:15 41° E 00:14:59 10° NNE
Cosmos 1025 Rocket 4.1 00:06:59 10° NNE 00:10:38 25° ENE 00:14:17 10° SE
BREEZE-M DEB (TANK) 3.5 00:09:16 10° SSW 00:11:57 42° SE 00:18:38 10° ENE
USA 186 3.6 00:11:48 13° E 00:12:51 15° ENE 00:14:45 10° NNE
Cosmos 1782 Rocket 3.7 00:08:46 10° S 00:13:10 82° W 00:17:38 10° N
Cosmos 1844 Rocket 3.4 00:09:32 10° SSE 00:14:18 30° ESE 00:19:07 10° NE
Cosmos 1867 3.8 00:10:11 10° NNW 00:15:33 55° NE 00:20:53 10° SE
ISS -3.2 00:15:34 10° WSW 00:18:54 57° NNW 00:22:14 10° NE
CZ-2D R/B 4.4 00:15:36 10° S 00:19:21 48° W 00:23:08 10° NNW
Cosmos 2084 Rocket 4.1 00:17:02 10° NW 00:21:26 59° WSW 00:25:53 10° SSE
Cosmos 2151 Rocket 4.3 00:18:06 10° SSE 00:22:01 32° E 00:26:00 10° NNE
Cosmos 1937 Rocket 4.3 00:18:54 10° SSW 00:24:04 57° WNW 00:29:13 10° NNE
USA 234 4.1 00:19:18 10° ENE 00:24:40 27° SE 00:30:00 10° S
Lacrosse 5 rocket 4.1 00:22:57 10° NW 00:24:46 12° NNW 00:26:37 10° N
SJ-11-01 4.2 00:20:06 10° SSE 00:24:46 69° ENE 00:29:28 10° N
Cosmos 2150 Rocket 4.4 00:21:08 10° S 00:26:10 44° ESE 00:31:19 10° NNE
Cosmos 1943 3.6 00:24:14 10° NNW 00:29:50 65° WSW 00:35:25 10° S
Cosmos 1125 Rocket 4.2 00:25:58 10° SSE 00:30:34 31° E 00:35:13 10° NE
CZ-2C R/B 2.1 00:27:43 10° WSW 00:30:57 30° S 00:32:43 19° SE
Cosmos 1891 Rocket 4.4 00:30:14 10° S 00:36:20 74° E 00:42:24 10° N
CSL-04 Debris 4.3 00:31:34 10° S 00:36:57 78° WSW 00:42:22 10° NNW
Exosat Rocket 4.2 00:33:12 10° S 00:38:27 34° ESE 00:43:00 10° NE
Cosmos 1975 Rocket 3.7 00:35:00 10° NNW 00:39:15 58° W 00:43:28 10° S
NOSS 3-4 (A) 4.3 00:35:30 10° SSE 00:39:59 23° ESE 00:42:16 18° E
NOSS 3-4 (C) 4.3 00:35:40 10° SSE 00:40:06 23° ESE 00:41:56 19° E
CSL-04 Rocket 3.9 00:38:22 10° S 00:43:45 72° WSW 00:49:15 10° NNW
Cosmos 1174 4.5 00:43:42 10° SSW 00:48:28 86° ESE 00:54:34 10° NNE
Meteor 1-15 Rocket 4.4 00:48:17 10° SSE 00:53:39 49° E 00:59:07 10° NNE
Cosmos 1674 3.5 00:50:41 10° NNE 00:54:01 32° ENE 00:54:01 32° ENE
Cosmos 1805 4.5 00:57:53 25° NE 00:57:53 25° NE 01:00:03 10° NNE
Abrixas rocket 4.0 00:54:32 10° NW 00:56:38 18° N 00:57:14 17° NNE
Resurs 01 Rocket 3.4 00:59:15 17° NE 00:59:15 17° NE 01:01:24 10° NNE
H-2A R/B 2.5 00:53:48 10° S 00:58:41 61° W 01:03:42 10° NNW
IRS-1A Rocket 4.4 00:55:43 17° SSE 01:00:21 64° ENE 01:06:09 10° N
Cosmos 1048 Rocket 4.1 00:55:21 10° NNW 01:00:37 59° ENE 01:03:09 30° SE
ATLAS 2AS CENTAUR R/B 3.4 00:55:16 10° S 01:02:20 38° ESE 01:09:27 10° NE
Nadezhda 4 Rocket 3.9 00:56:20 10° N 01:02:26 69° E 01:07:55 13° SSE
BREEZE-M TANK 3.4 00:51:47 10° WSW 01:03:06 80° NNW 01:05:15 28° ENE
Cosmos 2034 Rocket 4.0 01:01:15 10° S 01:07:37 86° E 01:14:00 10° N
CENTAUR R/B 3.5 01:02:17 10° NNW 01:10:11 52° NE 01:14:15 31° ESE
CZ-4 R/B 4.5 01:10:51 10° SW 01:13:25 16° W 01:15:59 10° NW
Okean 1 Rocket 3.1 01:16:18 56° ESE 01:16:34 57° E 01:20:59 10° NNE
ATLAS 3B R/B 4.1 01:12:42 10° NNW 01:17:59 23° NE 01:20:03 20° ENE
Okean 2 Rocket 4.3 01:13:54 10° SSW 01:18:10 42° WNW 01:22:27 10° N
Cosmos 1707 4.4 01:15:01 10° NNW 01:18:28 33° W 01:21:55 10° SSW
Ariane Rocket 2.9 01:16:43 26° SSE 01:19:38 88° WSW 01:24:45 10° NNW
KORONAS-FOTON 3.9 01:16:53 10° N 01:20:25 62° NE 01:20:25 62° NE
OBJECT-B 2.9 01:23:19 20° N 01:23:19 20° N 01:24:28 10° N
Cosmos 2082 Rocket 4.3 01:21:47 10° NNE 01:23:32 11° NE 01:23:32 11° NE
USA 238 DEB 3.8 01:18:47 10° NNW 01:26:06 82° NE 01:29:18 38° SE
Cosmos 494 Rocket 4.0 01:20:52 10° NNW 01:26:07 64° ENE 01:26:49 57° ESE
USA 238 3.8 01:18:54 10° NNW 01:26:12 81° NE 01:29:22 39° SE
Meteor 2-5 Rocket 3.8 01:21:36 10° N 01:27:10 55° ENE 01:27:52 52° ESE
ARGOS 4.1 01:22:58 10° S 01:28:05 45° W 01:33:14 10° NNW
Resurs 1-3 4.0 01:32:05 50° NNE 01:32:05 50° NNE 01:35:40 10° N
Meteor 1-22 Rocket 4.4 01:32:16 53° E 01:32:20 53° E 01:38:10 10° NNE
SJ-6B 3.0 01:33:14 63° W 01:33:14 63° W 01:36:56 10° NNW
CZ-2C R/B 3.0 01:28:55 10° N 01:34:27 70° WNW 01:40:01 10° SSW
COSMOS 2406 4.2 01:33:49 10° N 01:38:13 30° NE 01:38:13 30° NE
Cosmos 1634 Rocket 3.8 01:37:16 47° SSE 01:39:01 68° E 01:45:10 10° NNE
USA 186 3.9 01:43:19 25° W 01:43:19 25° W 01:46:01 10° NW
SPOT 3 Rocket 3.5 01:44:55 71° NE 01:44:55 71° NE 01:49:50 10° N
Meteor 1-24 Rocket 3.8 01:39:29 10° N 01:44:31 57° NE 01:44:31 57° NE
Cosmos 2285 Rocket 4.2 01:43:11 10° SSW 01:49:27 70° WNW 01:55:48 10° NNE
NOSS 3-2 (A) 4.3 01:45:20 10° NW 01:53:01 69° WSW 01:56:30 39° S
Cosmos 1844 4.5 01:47:48 10° SW 01:53:21 51° WNW 01:58:52 10° NNE
ISS -1.0 01:53:58 10° WNW 01:55:46 16° NNW 01:55:46 16° NNW
Cosmos 1844 Rocket 4.0 01:52:53 10° SW 01:58:02 38° WNW 02:03:14 10° N
Cosmos 1627 Rocket 4.4 01:52:32 10° N 01:58:58 88° W 01:59:56 67° S
Cosmos 1092 Rocket 4.2 01:57:09 10° NNW 02:03:16 65° W 02:05:04 45° SSW
Lacrosse 5 rocket 4.2 02:04:39 10° N 02:05:46 11° N 02:06:10 11° NNE
Cosmos 2026 Rocket 4.0 02:01:33 10° N 02:07:56 80° W 02:08:36 71° SSW
USA 234 3.2 02:04:40 31° NE 02:08:05 82° NW 02:14:38 10° SW
Milstar 3 Cent rocket 4.4 02:13:11 10° SW 02:14:14 13° SW 02:14:14 13° SW
Cosmos 2279 Rocket 4.4 02:21:53 55° N 02:21:53 55° N 02:26:41 10° N
Cosmos 1833 Rocket 3.9 02:18:26 10° NNW 02:21:52 34° N 02:21:52 34° N
NOSS 3-2 (C) 4.3 02:21:02 10° NW 02:28:42 64° WSW 02:29:49 59° SSW
NOSS 3-4 (A) 3.8 02:24:28 10° SW 02:34:00 24° NNE 02:36:27 10° NNE
NOSS 3-4 (C) 3.8 02:24:34 10° SW 02:34:28 21° NNE 02:36:33 10° NNE
Resurs 01 Rocket 3.8 02:36:49 24° NW 02:36:49 24° NW 02:38:49 10° NNW
ATLAS 2AS CENTAUR R/B 3.5 02:45:22 10° SW 02:53:07 55° NW 03:00:53 10° NNE
CENTAUR R/B 3.8 02:53:11 10° NW 03:01:02 46° WSW 03:01:27 45° WSW
Cosmos 2082 Rocket 4.1 03:03:14 10° NNW 03:05:22 24° NNW 03:05:22 24° NNW
ATLAS 3B R/B 3.5 03:02:41 10° NNW 03:07:18 46° NNW 03:07:18 46° NNW
ADEOS II 4.2 07:26:15 10° NNE 07:28:11 22° NNE 07:28:11 22° NNE
Lacrosse 5 3.6 08:06:13 29° NNE 08:06:13 29° NNE 08:08:50 10° NE
CZ-2D R/B 4.3 08:02:51 10° N 08:04:03 16° NNW 08:04:03 16° NNW
Resurs 1-4 Rocket 4.4 08:09:10 10° N 08:10:13 15° NNW 08:10:13 15° NNW
NOSS 3-3 (A) 4.4 08:19:03 49° ESE 08:19:03 49° ESE 08:24:54 10° NE
NOSS 3-3 (C) 4.4 08:19:13 48° ESE 08:19:13 48° ESE 08:24:58 10° NE
USA 267 3.2 08:16:04 10° NE 08:22:28 73° NNW 08:22:28 73° NNW
Spot 4 Rocket 4.3 08:30:19 10° NNE 08:35:06 66° ENE 08:35:06 66° ENE
SL-8 R/B 4.4 08:39:54 49° NNE 08:39:54 49° NNE 08:44:15 10° E
Cosmos 921 Rocket 4.0 08:43:18 43° ENE 08:43:18 43° ENE 08:46:29 10° NNE
MSX 4.1 08:39:40 10° NNE 08:45:26 66° ESE 08:47:06 45° SSE
Cosmos 1812 4.1 08:46:42 36° ENE 08:46:42 36° ENE 08:49:53 10° NNE
Timation 1 Rocket 4.2 08:41:04 10° NNW 08:47:07 86° WSW 08:53:07 10° SSE
Cosmos 1697 Rocket 3.8 08:48:35 31° NNW 08:48:35 31° NNW 08:52:28 10° N
Cosmos 1980 Rocket 2.4 08:52:46 56° NW 08:52:46 56° NW 08:57:57 10° NNE
USA 234 3.6 08:49:40 10° ESE 08:56:07 65° NE 09:02:34 10° NW
BREEZE-M DEB (TANK) 3.8 08:55:57 43° SW 08:58:29 63° SSE 09:02:23 10° ENE
Cosmos 2322 Rocket 3.4 08:55:32 17° SSE 08:59:24 38° ESE 09:04:37 10° NE
BREEZE-M DEB (TANK) 3.7 09:01:04 41° NNE 09:01:04 41° NNE 09:04:57 10° ENE
Cosmos 2263 Rocket 2.7 08:55:42 10° NNW 09:01:18 60° ENE 09:06:54 10° SE
Celestis-02/Orion 38 4.4 09:02:14 10° SSE 09:07:31 82° WSW 09:12:43 10° NNW
SL-16 R/B 2.7 09:05:31 26° S 09:08:35 57° ESE 09:14:08 10° NNE
SL-4 R/B 2.8 09:08:18 46° SSE 09:08:52 48° SE 09:13:25 10° ENE
Cosmos 2228 Rocket 3.1 09:09:42 64° NNW 09:09:42 64° NNW 09:13:38 10° N
FALCON 9 DEB 4.4 09:10:01 38° ESE 09:10:01 38° ESE 09:12:43 10° ENE
ADEOS II 3.8 09:06:53 10° NNW 09:09:07 18° NW 09:09:07 18° NW
Cosmos 1934 Rocket 3.9 09:05:20 10° NNW 09:11:15 58° W 09:12:49 45° SW
ARIANE 5 R/B 3.3 09:08:51 10° N 09:12:41 34° NW 09:12:41 34° NW
Meteor 1-4 Rocket 2.7 09:16:32 65° E 09:16:32 65° E 09:19:57 10° NNE
COSMOS 2441 4.3 09:12:27 10° N 09:17:21 73° WNW 09:18:29 52° SW
Cosmos 1869 Rocket 3.5 09:15:18 10° N 09:19:40 83° E 09:23:58 10° S
CZ-2C R/B 2.9 09:14:43 10° NNE 09:19:50 62° E 09:24:58 10° S
ASTEX 1 4.0 09:15:10 10° N 09:19:17 39° WNW 09:19:17 39° WNW
IDEFIX/ARIANE 42P 2.9 09:14:54 10° N 09:19:52 43° WNW 09:20:03 43° WNW
Cosmos 2227 4.1 09:14:49 10° NNW 09:20:30 89° WSW 09:26:07 10° SSE
Meteor 1-10 Rocket 4.2 09:17:10 22° S 09:20:58 90° E 09:26:53 10° N
ERBS 3.2 09:22:46 40° N 09:22:46 40° N 09:25:21 10° NE
CZ-2C R/B 3.3 09:18:53 10° N 09:21:45 43° NNW 09:21:45 43° NNW
Cosmos 1763 Rocket 3.6 09:21:34 24° S 09:24:51 75° ESE 09:30:10 10° NNE
IRIDIUM 106 4.3 09:19:46 10° N 09:25:01 86° E 09:30:15 10° S
SJ 16-02 1.2 09:24:58 10° NNW 09:29:22 80° WSW 09:33:45 10° SSE
PSLV R/B 3.4 09:28:04 10° NNE 09:32:17 87° E 09:34:43 25° SSW
Cosmos 44 4.2 09:33:21 27° NW 09:33:34 27° NW 09:37:32 10° NNE
Meteor 1-5 Rocket 4.0 09:29:17 10° NNW 09:34:35 69° W 09:39:58 10° S
CZ-4B R/B 3.3 09:32:15 10° SE 09:35:03 30° ENE 09:37:56 10° N
Meteor 2-6 Rocket 4.3 09:32:38 31° SW 09:35:14 56° WNW 09:40:58 10° N
DEBRIS 2.4 09:34:58 57° NW 09:35:27 78° NNE 09:40:36 10° ESE
H-2A R/B 2.0 09:31:13 10° S 09:35:31 63° WSW 09:39:58 10° NNW
Cosmos 1238 Rocket 4.3 09:30:29 10° NNW 09:36:29 40° W 09:39:04 27° SW
Cosmos 1605 Rocket 4.1 09:32:18 10° NNW 09:38:33 56° W 09:44:45 10° SSW
Landsat 5 3.8 09:41:46 10° S 09:46:07 47° W 09:50:28 10° NNW
PAYLOAD A 3.8 09:42:23 10° N 09:47:02 62° WNW 09:50:29 18° SSW
Lacrosse 5 3.8 09:45:25 14° NW 09:47:45 18° NNW 09:51:13 10° NNE
ERS-2 2.0 09:44:53 10° S 09:48:31 76° WSW 09:52:13 10° NNW
Cosmos 990 Rocket 3.9 09:44:56 10° NNW 09:50:08 75° WSW 09:55:20 10° SSE
Cosmos 540 Rocket 3.8 09:46:29 10° S 09:51:34 65° ESE 09:56:43 10° NNE
X-37B 1.0 09:51:10 31° NW 09:52:26 59° NNE 09:55:35 10° E
Cosmos 468 Rocket 4.1 09:50:04 22° SW 09:53:20 54° WNW 09:58:31 10° N
ALOS 2.9 09:55:03 10° NNE 09:59:40 58° E 10:04:15 10° S
Cosmos 1484 Rocket 3.4 09:55:52 10° NNE 09:59:49 59° E 10:03:46 10° S
NOSS 3-4 (A) 4.3 09:56:02 10° NNW 10:03:05 66° NE 10:10:51 10° SE
NOSS 3-4 (C) 4.4 09:56:09 10° NNW 10:03:11 65° NE 10:10:57 10° SE
USA 267 4.4 09:59:26 10° NE 10:04:56 30° NNW 10:09:48 13° WNW
Cosmos 1536 2.7 10:02:49 10° NNW 10:06:53 69° W 10:10:54 10° S
Meteor 1-31 Rocket 3.2 10:07:33 10° NNE 10:11:22 65° E 10:15:11 10° S
Cosmos 1727 Rocket 4.3 10:05:39 10° SSW 10:11:42 45° WNW 10:17:45 10° N
Cosmos 1437 Rocket 3.5 10:09:40 10° S 10:13:21 53° E 10:17:05 10° NNE
Meteor 1-11 Rocket 3.9 10:08:44 10° NNW 10:14:16 49° W 10:19:40 10° SSW
Cosmos 2100 Rocket 4.0 10:08:54 10° N 10:15:16 73° W 10:21:35 10° S
deb Chang Zheng 4 3.5 10:15:56 10° N 10:20:10 62° WNW 10:24:22 10° SSW
Cosmos 1802 Rocket 4.0 10:14:22 10° N 10:20:36 88° W 10:26:53 10° S
SL-8 R/B 4.0 10:17:54 12° WNW 10:22:10 48° SW 10:26:44 10° SE
Meteor 1-27 Rocket 4.2 10:17:46 10° SSW 10:23:25 45° WNW 10:29:05 10° N
METEOR-M 4.2 10:19:38 10° NNE 10:25:02 85° ESE 10:30:23 10° SSW
Cosmos 1898 Rocket 3.9 10:21:03 10° NW 10:25:55 39° WSW 10:30:46 10° S
Cosmos 2360 Rocket 2.2 10:20:32 10° SSW 10:26:12 78° WNW 10:31:53 10° NNE
ATLAS 2AS CENTAUR R/B 3.1 10:19:36 10° NNW 10:27:05 75° NE 10:33:54 10° SE
ADEOS Rocket 3.4 10:21:25 10° S 10:28:05 50° W 10:34:09 10° NNW
Cosmos 1666 3.8 10:25:59 10° NW 10:29:04 24° W 10:32:07 10° SW
Cosmos 1459 Rocket 4.0 10:24:20 10° NNW 10:30:19 60° W 10:36:13 10° S
Cosmos 372 Rocket 4.1 10:27:22 10° NNW 10:32:32 80° ENE 10:37:38 10° SSE
Cosmos 2123 Rocket 4.0 10:28:47 10° S 10:35:01 86° W 10:41:22 10° N
SAR-Lupe-4 3.9 10:33:02 10° S 10:36:27 43° W 10:39:54 10° NNW
FENGYUN 3A 3.7 10:31:09 10° N 10:36:30 64° WNW 10:41:49 10° SSW
Cosmos 2242 Rocket 3.8 10:32:24 10° S 10:36:47 79° E 10:41:12 10° N
Cosmos 1980 Rocket 4.3 10:37:05 10° NW 10:37:38 10° NW 10:38:12 10° NW
USA 234 3.8 10:33:24 10° SSE 10:39:19 37° SW 10:45:17 10° WNW
Cosmos 2208 Rocket 4.1 10:34:18 10° SSW 10:39:28 58° WNW 10:44:36 10° NNE
Okean 1-7 3.8 10:36:26 10° S 10:40:36 57° E 10:44:47 10° NNE
Cosmos 2322 Rocket 3.0 10:38:27 10° WSW 10:43:28 32° WNW 10:48:33 10° N
Cosmos 2263 Rocket 3.4 10:40:52 10° WNW 10:44:41 19° W 10:48:29 10° SW
FALCON 9 DEB 4.5 10:43:36 10° W 10:46:34 27° NNW 10:49:32 10° NNE
Cosmos 1844 3.9 10:42:06 10° NNW 10:47:41 76° ENE 10:53:14 10° SSE
SL-4 R/B 3.1 10:44:19 10° W 10:48:42 41° NNW 10:53:15 10° NE
Cosmos 1733 Rocket 3.8 10:46:18 10° NNW 10:50:07 30° W 10:53:54 10° SSW
SKYMED 2 3.5 10:46:09 10° S 10:50:29 80° WSW 10:54:51 10° NNW
Cosmos 1844 Rocket 2.7 10:45:29 10° NNW 10:51:10 83° WSW 10:56:48 10° SSE
Cosmos 1937 Rocket 4.2 10:46:45 10° NW 10:51:15 31° W 10:55:44 10° SSW
CZ-4C R/B 4.2 10:45:24 10° NNW 10:52:20 45° NE 11:00:11 10° ESE
